Flag for U.S.A. Weather past 2 weeks in Charleston, West Virginia, U.S.A.

63 °F

Light rain. Overcast.

Feels Like: 63 °F
Forecast: 52 / 67 °F
Wind: 6 mph from Southwest

Location: Yeager Airport

Current Time: Nov 28, 2015 at 3:52:20 PM

Latest Report: Nov 28, 2015 at 2:54 PM

Visibility: 10 mi

Pressure: 30.17 "Hg

Humidity: 68%

Dew point: 52 °F

Location of CharlestonLocation

Historic Weather in Charleston — Graph


Charleston temperature yesterday

Maximum temperature yesterday: 71 °F (at 2:54 PM)
Minimum temperature yesterday: 44 °F (at 6:54 AM)
Average temperature yesterday: 56 °F

Past Weeks' High & Low Weather Summary

High71 °F (Nov 27, 2:54 PM)93% (Nov 15, 6:54 AM)30.64 "Hg (Nov 15, 6:54 AM)
Low23 °F (Nov 23, 6:54 AM)17% (Nov 20, 3:54 PM)29.78 "Hg (Nov 21, 5:54 PM)
Average48 °F54%30.26 "Hg
* Reported Nov 13 1:54 PM — Nov 28 1:54 PM, Charleston, Weather by CustomWeather, © 2015

Note: Actual official high and low records may vary slightly from our data, if they occured in-between our weather recording intervals... More about our weather records


Charleston weather history for previous 24 hours

Time TempWeatherWind HumidityBarometerVisibility
1:54 PM
Sat, Nov 28
64 °FLight rain. Cloudy.9 mph63%30.19 "Hg10 mi
12:54 PM63 °FCloudy.5 mph65%30.21 "Hg10 mi
11:54 AM58 °FDrizzle. Mostly cloudy.No wind81%30.23 "Hg9 mi
10:54 AM57 °FCloudy.3 mph69%30.25 "Hg7 mi
9:54 AM55 °FMostly cloudy.No wind72%30.25 "Hg10 mi
8:54 AM54 °FMostly cloudy.No wind74%30.25 "Hg8 mi
7:54 AM51 °FOvercast.No wind80%30.25 "Hg10 mi
6:54 AM51 °FOvercast.No wind80%30.25 "Hg10 mi
5:54 AM51 °FPassing clouds.No wind80%30.23 "Hg10 mi
4:54 AM53 °FPassing clouds.No wind74%30.23 "Hg10 mi
3:54 AM52 °FPassing clouds.No wind75%30.24 "Hg10 mi
2:54 AM53 °FMostly cloudy.No wind74%30.26 "Hg10 mi
1:54 AM54 °FOvercast.No wind72%30.26 "Hg10 mi
12:54 AM54 °FPassing clouds.No wind69%30.25 "Hg10 mi
11:54 PM
Fri, Nov 27
54 °FOvercast.No wind72%30.27 "Hg10 mi
10:54 PM55 °FMostly cloudy.No wind67%30.28 "Hg10 mi
9:54 PM54 °FMostly cloudy.3 mph72%30.32 "Hg10 mi
8:54 PM55 °FPartly cloudy.3 mph67%30.32 "Hg10 mi
7:54 PM58 °FPassing clouds.No wind62%30.33 "Hg10 mi
6:54 PM62 °FPartly cloudy.No wind52%30.32 "Hg10 mi
5:54 PM64 °FPassing clouds.5 mph49%30.32 "Hg10 mi
4:54 PM65 °FScattered clouds.6 mph47%30.32 "Hg10 mi
3:54 PM68 °FScattered clouds.7 mph42%30.33 "Hg10 mi
Weather by CustomWeather, © 2015

See weather overviewHow to use our weather pages